Time,TemperatureF,DewpointF,PressureIn,WindDirection,WindDirectionDegrees,WindSpeedMPH,WindSpeedGustMPH,Humidity,HourlyPrecipIn,Conditions,Clouds,dailyrainin,SoftwareType,DateUTC
2013-04-10 00:05:00,36.6,34.5,29.98,NNW,341,0.0,0.0,92,0.00,,,0.00,Wunderground v.1.15,2013-04-10 04:05:00,
2013-04-10 00:10:00,36.6,34.2,29.97,NNW,341,0.0,0.0,91,0.00,,,0.00,Wunderground v.1.15,2013-04-10 04:10:00,
2013-04-10 00:15:00,36.7,34.3,29.97,NNW,341,0.0,0.0,91,0.00,,,0.00,Wunderground v.1.15,2013-04-10 04:15:00,
2013-04-10 00:20:00,36.7,34.6,29.97,NNW,341,0.0,0.0,92,0.00,,,0.00,Wunderground v.1.15,2013-04-10 04:20:00,
2013-04-10 00:25:00,36.5,34.4,29.97,NNW,341,0.0,0.0,92,0.00,,,0.00,Wunderground v.1.15,2013-04-10 04:25:00,
2013-04-10 00:30:00,36.4,34.3,29.97,NNW,341,0.0,0.0,92,0.00,,,0.00,Wunderground v.1.15,2013-04-10 04:30:00,
2013-04-10 00:35:00,36.5,34.4,29.97,NNW,341,0.0,0.0,92,0.00,,,0.00,Wunderground v.1.15,2013-04-10 04:35:00,
2013-04-10 00:40:00,36.5,34.4,29.97,NNW,341,0.0,0.0,92,0.00,,,0.00,Wunderground v.1.15,2013-04-10 04:40:00,
2013-04-10 00:45:00,36.5,34.4,29.98,NNW,341,0.0,0.0,92,0.00,,,0.00,Wunderground v.1.15,2013-04-10 04:45:00,
2013-04-10 00:50:00,36.5,34.4,29.98,NNW,341,0.0,0.0,92,0.00,,,0.00,Wunderground v.1.15,2013-04-10 04:50:00,
2013-04-10 00:55:00,36.5,34.4,29.98,NNW,341,0.0,0.0,92,0.00,,,0.00,Wunderground v.1.15,2013-04-10 04:55:00,
2013-04-10 01:00:00,36.6,34.5,29.98,NNW,341,0.0,0.0,92,0.00,,,0.00,Wunderground v.1.15,2013-04-10 05:00:00,
2013-04-10 01:05:00,36.6,34.5,29.98,NNW,341,0.0,0.0,92,0.00,,,0.00,Wunderground v.1.15,2013-04-10 05:05:00,
2013-04-10 01:15:00,36.6,34.5,29.98,NNW,341,0.0,0.0,92,0.00,,,0.00,Wunderground v.1.15,2013-04-10 05:15:00,
2013-04-10 01:20:00,36.3,34.2,29.99,NNW,341,0.0,0.0,92,0.00,,,0.00,Wunderground v.1.15,2013-04-10 05:20:00,
2013-04-10 01:30:00,36.2,34.1,29.99,NNW,341,0.0,0.0,92,0.00,,,0.01,Wunderground v.1.15,2013-04-10 05:30:00,
2013-04-10 01:35:00,36.4,34.6,29.99,NNW,341,0.0,0.0,93,0.00,,,0.01,Wunderground v.1.15,2013-04-10 05:35:00,
2013-04-10 01:40:00,36.5,34.4,29.98,NNW,341,0.0,0.0,92,0.00,,,0.01,Wunderground v.1.15,2013-04-10 05:40:00,
2013-04-10 01:45:00,36.6,34.8,29.98,NNW,341,0.0,0.0,93,0.04,,,0.02,Wunderground v.1.15,2013-04-10 05:45:00,
2013-04-10 01:55:00,36.8,34.7,29.99,NNW,341,0.0,0.0,92,0.04,,,0.02,Wunderground v.1.15,2013-04-10 05:55:00,
2013-04-10 02:00:00,36.8,34.7,29.99,NNW,341,0.0,0.0,92,0.04,,,0.03,Wunderground v.1.15,2013-04-10 06:00:00,
2013-04-10 02:05:00,37.0,35.2,29.99,NNW,341,0.0,0.0,93,0.04,,,0.03,Wunderground v.1.15,2013-04-10 06:05:00,
2013-04-10 02:10:00,37.0,34.9,29.99,NNW,341,0.0,0.0,92,0.04,,,0.03,Wunderground v.1.15,2013-04-10 06:10:00,
2013-04-10 02:21:00,36.9,34.8,29.98,NNW,341,0.0,0.0,92,0.05,,,0.04,Wunderground v.1.15,2013-04-10 06:21:00,
2013-04-10 02:30:00,36.8,34.7,29.98,NNW,341,0.0,0.0,92,0.04,,,0.05,Wunderground v.1.15,2013-04-10 06:30:00,
2013-04-10 02:40:00,36.8,35.0,29.98,NNW,341,0.0,0.0,93,0.04,,,0.05,Wunderground v.1.15,2013-04-10 06:40:00,
2013-04-10 02:45:00,36.7,34.9,29.98,NNW,341,0.0,0.0,93,0.04,,,0.06,Wunderground v.1.15,2013-04-10 06:45:00,
2013-04-10 02:50:00,36.5,34.4,29.98,NNW,341,0.0,0.0,92,0.04,,,0.06,Wunderground v.1.15,2013-04-10 06:50:00,
2013-04-10 03:00:00,36.4,34.6,29.97,NNW,341,0.0,0.0,93,0.00,,,0.07,Wunderground v.1.15,2013-04-10 07:00:00,
2013-04-10 03:05:00,36.4,34.6,29.97,NNW,341,0.0,0.0,93,0.00,,,0.07,Wunderground v.1.15,2013-04-10 07:05:00,
2013-04-10 03:15:00,36.6,34.8,29.97,NNW,341,0.0,0.0,93,0.00,,,0.07,Wunderground v.1.15,2013-04-10 07:15:00,
2013-04-10 03:20:00,36.7,34.9,29.96,NNW,341,0.0,0.0,93,0.00,,,0.07,Wunderground v.1.15,2013-04-10 07:20:00,
2013-04-10 03:25:00,36.6,34.8,29.96,NNW,341,0.0,0.0,93,0.00,,,0.07,Wunderground v.1.15,2013-04-10 07:25:00,
2013-04-10 03:35:00,36.5,34.7,29.96,NNW,341,0.0,0.0,93,0.00,,,0.07,Wunderground v.1.15,2013-04-10 07:35:00,
2013-04-10 03:40:00,36.5,34.7,29.96,NNW,341,0.0,0.0,93,0.00,,,0.07,Wunderground v.1.15,2013-04-10 07:40:00,
2013-04-10 03:45:00,36.5,34.7,29.96,NNW,341,0.0,0.0,93,0.00,,,0.07,Wunderground v.1.15,2013-04-10 07:45:00,
2013-04-10 03:50:00,36.6,34.8,29.96,NNW,341,0.0,0.0,93,0.00,,,0.07,Wunderground v.1.15,2013-04-10 07:50:00,
2013-04-10 03:55:00,36.5,34.7,29.97,NNW,341,0.0,0.0,93,0.00,,,0.07,Wunderground v.1.15,2013-04-10 07:55:00,
2013-04-10 04:00:00,36.2,34.4,29.97,NNW,341,0.0,0.0,93,0.00,,,0.07,Wunderground v.1.15,2013-04-10 08:00:00,
2013-04-10 04:05:00,36.2,34.6,29.97,NNW,341,0.0,0.0,94,0.00,,,0.07,Wunderground v.1.15,2013-04-10 08:05:00,
2013-04-10 04:10:00,36.2,34.6,29.97,NNW,341,0.0,0.0,94,0.00,,,0.07,Wunderground v.1.15,2013-04-10 08:10:00,
2013-04-10 04:15:00,36.1,34.5,29.98,NNW,341,0.0,0.0,94,0.00,,,0.07,Wunderground v.1.15,2013-04-10 08:15:00,
2013-04-10 04:20:00,36.2,34.6,29.97,NNW,341,0.0,0.0,94,0.00,,,0.07,Wunderground v.1.15,2013-04-10 08:20:00,
2013-04-10 04:25:00,36.2,34.6,29.97,NNW,341,0.0,0.0,94,0.00,,,0.07,Wunderground v.1.15,2013-04-10 08:25:00,
2013-04-10 04:30:00,36.4,34.8,29.97,NNW,341,0.0,0.0,94,0.00,,,0.07,Wunderground v.1.15,2013-04-10 08:30:00,
2013-04-10 04:35:00,36.5,34.9,29.96,NNW,341,0.0,0.0,94,0.00,,,0.07,Wunderground v.1.15,2013-04-10 08:35:00,
2013-04-10 04:40:00,36.8,35.2,29.96,NNW,341,0.0,0.0,94,0.00,,,0.07,Wunderground v.1.15,2013-04-10 08:40:00,
2013-04-10 04:45:00,36.9,35.3,29.96,NNW,341,0.0,0.0,94,0.00,,,0.07,Wunderground v.1.15,2013-04-10 08:45:00,
2013-04-10 04:50:00,36.8,35.2,29.96,NNW,341,0.0,0.0,94,0.00,,,0.07,Wunderground v.1.15,2013-04-10 08:50:00,
2013-04-10 05:00:00,36.5,34.7,29.95,NNW,341,0.0,0.0,93,0.00,,,0.07,Wunderground v.1.15,2013-04-10 09:00:00,
2013-04-10 05:05:00,36.6,35.0,29.96,NNW,341,0.0,0.0,94,0.00,,,0.07,Wunderground v.1.15,2013-04-10 09:05:00,
2013-04-10 05:10:00,36.7,35.1,29.96,NNW,341,0.0,0.0,94,0.00,,,0.07,Wunderground v.1.15,2013-04-10 09:10:00,
2013-04-10 05:15:00,36.9,35.3,29.96,NNW,341,0.0,0.0,94,0.00,,,0.07,Wunderground v.1.15,2013-04-10 09:15:00,
2013-04-10 05:20:00,36.9,35.3,29.96,NNW,341,0.0,0.0,94,0.00,,,0.07,Wunderground v.1.15,2013-04-10 09:20:00,
2013-04-10 05:30:00,36.8,35.0,29.96,NNW,341,0.0,0.0,93,0.00,,,0.07,Wunderground v.1.15,2013-04-10 09:30:00,
2013-04-10 05:35:00,36.9,35.1,29.96,NNW,341,0.0,0.0,93,0.00,,,0.07,Wunderground v.1.15,2013-04-10 09:35:00,
2013-04-10 05:40:00,36.9,35.1,29.96,NNW,341,0.0,0.0,93,0.00,,,0.07,Wunderground v.1.15,2013-04-10 09:40:00,
2013-04-10 05:45:00,37.0,35.2,29.96,NNW,341,0.0,0.0,93,0.00,,,0.07,Wunderground v.1.15,2013-04-10 09:45:00,
2013-04-10 05:50:00,37.1,35.3,29.96,NNW,341,0.0,0.0,93,0.00,,,0.07,Wunderground v.1.15,2013-04-10 09:50:00,
2013-04-10 05:55:00,36.9,35.1,29.96,NNW,341,0.0,0.0,93,0.00,,,0.07,Wunderground v.1.15,2013-04-10 09:55:00,
2013-04-10 06:00:00,36.7,34.9,29.97,NNW,341,0.0,0.0,93,0.00,,,0.07,Wunderground v.1.15,2013-04-10 10:00:00,
2013-04-10 06:05:00,36.7,34.9,29.97,NNW,341,0.0,0.0,93,0.00,,,0.07,Wunderground v.1.15,2013-04-10 10:05:00,
2013-04-10 06:10:00,36.9,35.1,29.97,NNW,341,0.0,0.0,93,0.00,,,0.07,Wunderground v.1.15,2013-04-10 10:10:00,
2013-04-10 06:15:00,37.0,35.2,29.97,NNW,341,0.0,0.0,93,0.00,,,0.07,Wunderground v.1.15,2013-04-10 10:15:00,
2013-04-10 06:20:00,37.2,35.4,29.97,NNW,341,0.0,0.0,93,0.00,,,0.07,Wunderground v.1.15,2013-04-10 10:20:00,
2013-04-10 06:30:00,37.2,35.4,29.98,NNW,341,0.0,0.0,93,0.00,,,0.07,Wunderground v.1.15,2013-04-10 10:30:00,
2013-04-10 06:35:00,37.2,35.4,29.98,NNW,341,0.0,0.0,93,0.00,,,0.07,Wunderground v.1.15,2013-04-10 10:35:00,
2013-04-10 06:40:00,37.4,35.6,29.98,NNW,341,0.0,0.0,93,0.00,,,0.07,Wunderground v.1.15,2013-04-10 10:40:00,
2013-04-10 06:50:00,37.5,35.7,29.98,NNW,341,0.0,0.0,93,0.00,,,0.07,Wunderground v.1.15,2013-04-10 10:50:00,
2013-04-10 06:55:00,37.3,35.5,29.99,NNW,341,0.0,0.0,93,0.00,,,0.07,Wunderground v.1.15,2013-04-10 10:55:00,
2013-04-10 07:00:00,37.2,35.4,29.99,NNW,341,0.0,0.0,93,0.00,,,0.07,Wunderground v.1.15,2013-04-10 11:00:00,
2013-04-10 07:05:00,37.1,35.3,29.98,NNW,341,0.0,0.0,93,0.00,,,0.07,Wunderground v.1.15,2013-04-10 11:05:00,
2013-04-10 07:10:00,37.2,35.4,29.99,NNW,341,0.0,0.0,93,0.00,,,0.07,Wunderground v.1.15,2013-04-10 11:10:00,
2013-04-10 07:15:00,37.1,35.3,29.98,NNW,341,0.0,0.0,93,0.00,,,0.07,Wunderground v.1.15,2013-04-10 11:15:00,
2013-04-10 07:20:00,37.3,35.5,29.98,NNW,341,0.0,0.0,93,0.00,,,0.07,Wunderground v.1.15,2013-04-10 11:20:00,
2013-04-10 07:25:00,37.4,35.6,29.98,NNW,341,0.0,0.0,93,0.00,,,0.07,Wunderground v.1.15,2013-04-10 11:25:00,
2013-04-10 07:30:00,37.6,35.8,29.98,NNW,341,0.0,0.0,93,0.00,,,0.07,Wunderground v.1.15,2013-04-10 11:30:00,
2013-04-10 07:35:00,37.8,36.0,29.98,NNW,341,0.0,0.0,93,0.00,,,0.07,Wunderground v.1.15,2013-04-10 11:35:00,
2013-04-10 07:40:00,38.0,36.2,29.98,NNW,341,0.0,0.0,93,0.00,,,0.07,Wunderground v.1.15,2013-04-10 11:40:00,
2013-04-10 07:45:00,37.9,36.1,29.98,NNW,341,0.0,0.0,93,0.00,,,0.07,Wunderground v.1.15,2013-04-10 11:45:00,
2013-04-10 07:50:00,37.9,36.1,29.98,NNW,341,0.0,0.0,93,0.00,,,0.07,Wunderground v.1.15,2013-04-10 11:50:00,
2013-04-10 07:55:00,37.7,35.9,29.99,NNW,341,0.0,0.0,93,0.00,,,0.07,Wunderground v.1.15,2013-04-10 11:55:00,
2013-04-10 08:00:00,37.7,35.9,29.99,NNW,341,0.0,0.0,93,0.00,,,0.07,Wunderground v.1.15,2013-04-10 12:00:00,
2013-04-10 08:05:00,37.6,35.8,29.99,NNW,341,0.0,0.0,93,0.00,,,0.07,Wunderground v.1.15,2013-04-10 12:05:00,
2013-04-10 08:10:00,37.7,35.9,29.98,NNW,341,0.0,0.0,93,0.00,,,0.07,Wunderground v.1.15,2013-04-10 12:10:00,
2013-04-10 08:15:00,37.9,36.3,29.98,NNW,341,0.0,0.0,94,0.00,,,0.07,Wunderground v.1.15,2013-04-10 12:15:00,
2013-04-10 08:20:00,38.3,36.5,29.99,NNW,341,0.0,0.0,93,0.00,,,0.07,Wunderground v.1.15,2013-04-10 12:20:00,
2013-04-10 08:30:00,38.7,36.9,29.99,NNW,341,0.0,0.0,93,0.00,,,0.07,Wunderground v.1.15,2013-04-10 12:30:00,
2013-04-10 08:40:00,38.9,37.0,29.98,NNW,341,0.0,0.0,93,0.00,,,0.07,Wunderground v.1.15,2013-04-10 12:40:00,
2013-04-10 08:50:00,39.7,38.1,29.99,NNW,341,0.0,0.0,94,0.00,,,0.07,Wunderground v.1.15,2013-04-10 12:50:00,
2013-04-10 08:55:00,39.9,38.0,29.99,NNW,341,0.0,0.0,93,0.00,,,0.07,Wunderground v.1.15,2013-04-10 12:55:00,
2013-04-10 09:05:00,40.4,38.8,29.98,NNW,341,0.0,0.0,94,0.00,,,0.07,Wunderground v.1.15,2013-04-10 13:05:00,
2013-04-10 09:10:00,40.5,38.6,29.98,NNW,341,0.0,0.0,93,0.00,,,0.07,Wunderground v.1.15,2013-04-10 13:10:00,
2013-04-10 09:15:00,40.5,38.6,29.99,NNW,341,0.0,0.0,93,0.00,,,0.07,Wunderground v.1.15,2013-04-10 13:15:00,
2013-04-10 09:20:00,40.5,38.6,29.99,NNW,341,0.0,0.0,93,0.00,,,0.07,Wunderground v.1.15,2013-04-10 13:20:00,
2013-04-10 09:25:00,40.5,38.6,29.99,NNW,341,0.0,0.0,93,0.00,,,0.07,Wunderground v.1.15,2013-04-10 13:25:00,
2013-04-10 09:30:00,40.4,38.5,29.99,NNW,341,0.0,0.0,93,0.00,,,0.07,Wunderground v.1.15,2013-04-10 13:30:00,
2013-04-10 09:35:00,40.1,38.2,30.00,NNW,341,0.0,2.0,93,0.00,,,0.07,Wunderground v.1.15,2013-04-10 13:35:00,
2013-04-10 09:40:00,39.9,38.3,30.00,NNW,341,0.0,2.0,94,0.00,,,0.07,Wunderground v.1.15,2013-04-10 13:40:00,
2013-04-10 09:45:00,39.9,38.3,30.01,NNW,341,0.0,2.0,94,0.00,,,0.07,Wunderground v.1.15,2013-04-10 13:45:00,
2013-04-10 09:55:00,40.1,38.5,30.01,NNW,341,0.0,0.0,94,0.00,,,0.07,Wunderground v.1.15,2013-04-10 13:55:00,
2013-04-10 10:00:00,40.3,39.0,30.01,NNW,341,0.0,0.0,95,0.00,,,0.07,Wunderground v.1.15,2013-04-10 14:00:00,
2013-04-10 10:05:00,40.5,38.9,30.01,NNW,341,0.0,0.0,94,0.00,,,0.07,Wunderground v.1.15,2013-04-10 14:05:00,
2013-04-10 10:15:00,41.0,39.7,30.01,NNW,341,0.0,0.0,95,0.00,,,0.07,Wunderground v.1.15,2013-04-10 14:15:00,
2013-04-10 10:25:00,41.8,40.5,30.01,NNW,341,0.0,0.0,95,0.00,,,0.07,Wunderground v.1.15,2013-04-10 14:25:00,
2013-04-10 10:30:00,42.2,40.9,30.01,NNW,334,0.0,0.0,95,0.00,,,0.07,Wunderground v.1.15,2013-04-10 14:30:00,
2013-04-10 10:35:00,42.5,40.9,30.01,WSW,248,1.0,1.0,94,0.00,,,0.07,Wunderground v.1.15,2013-04-10 14:35:00,
2013-04-10 10:40:00,42.8,41.2,30.01,WNW,303,1.0,1.0,94,0.00,,,0.07,Wunderground v.1.15,2013-04-10 14:40:00,
2013-04-10 10:45:00,42.8,40.9,30.01,NW,305,1.0,1.0,93,0.00,,,0.07,Wunderground v.1.15,2013-04-10 14:45:00,
2013-04-10 10:50:00,42.7,40.8,30.02,WNW,290,1.0,2.0,93,0.00,,,0.07,Wunderground v.1.15,2013-04-10 14:50:00,
2013-04-10 10:55:00,42.7,40.8,30.02,WNW,290,1.0,1.0,93,0.00,,,0.07,Wunderground v.1.15,2013-04-10 14:55:00,
2013-04-10 11:00:00,42.6,40.4,30.01,NW,310,1.0,2.0,92,0.00,,,0.07,Wunderground v.1.15,2013-04-10 15:00:00,
2013-04-10 11:05:00,42.5,40.3,30.01,NW,310,1.0,2.0,92,0.00,,,0.07,Wunderground v.1.15,2013-04-10 15:05:00,
2013-04-10 11:10:00,42.5,40.3,30.01,NW,310,1.0,1.0,92,0.00,,,0.07,Wunderground v.1.15,2013-04-10 15:10:00,
2013-04-10 11:15:00,42.6,40.4,30.00,NW,310,1.0,1.0,92,0.00,,,0.07,Wunderground v.1.15,2013-04-10 15:15:00,
2013-04-10 11:20:00,42.6,40.2,30.00,NW,310,1.0,1.0,91,0.00,,,0.07,Wunderground v.1.15,2013-04-10 15:20:00,
2013-04-10 11:30:00,42.9,40.7,30.00,NNW,345,1.0,3.0,92,0.00,,,0.07,Wunderground v.1.15,2013-04-10 15:30:00,
2013-04-10 11:35:00,43.0,40.6,30.00,NNW,345,2.0,3.0,91,0.00,,,0.07,Wunderground v.1.15,2013-04-10 15:35:00,
2013-04-10 11:40:00,43.1,40.7,30.00,NNW,345,1.0,1.0,91,0.00,,,0.07,Wunderground v.1.15,2013-04-10 15:40:00,
2013-04-10 11:45:00,43.2,40.8,30.00,NNW,345,1.0,4.0,91,0.00,,,0.07,Wunderground v.1.15,2013-04-10 15:45:00,
2013-04-10 11:50:00,43.1,40.7,30.00,NW,317,2.0,2.0,91,0.00,,,0.07,Wunderground v.1.15,2013-04-10 15:50:00,
2013-04-10 11:55:00,43.1,40.7,30.00,NNW,329,2.0,2.0,91,0.00,,,0.07,Wunderground v.1.15,2013-04-10 15:55:00,
2013-04-10 12:00:00,43.1,40.7,30.00,NNW,329,1.0,1.0,91,0.00,,,0.07,Wunderground v.1.15,2013-04-10 16:00:00,
2013-04-10 12:10:00,43.3,40.8,30.00,NNW,329,1.0,1.0,91,0.00,,,0.07,Wunderground v.1.15,2013-04-10 16:10:00,
2013-04-10 12:15:00,43.6,41.1,30.00,NNW,329,0.0,3.0,91,0.00,,,0.07,Wunderground v.1.15,2013-04-10 16:15:00,
2013-04-10 12:30:00,43.9,40.9,29.99,West,271,2.0,2.0,89,0.00,,,0.07,Wunderground v.1.15,2013-04-10 16:30:00,
2013-04-10 12:40:00,44.2,40.6,30.00,NW,312,2.0,2.0,87,0.00,,,0.07,Wunderground v.1.15,2013-04-10 16:40:00,
2013-04-10 12:50:00,44.8,41.2,30.00,WNW,283,2.0,2.0,87,0.00,,,0.07,Wunderground v.1.15,2013-04-10 16:50:00,
2013-04-10 12:55:00,44.7,40.8,29.99,WNW,298,2.0,2.0,86,0.00,,,0.07,Wunderground v.1.15,2013-04-10 16:55:00,
2013-04-10 13:00:00,44.6,40.7,29.99,NW,315,2.0,2.0,86,0.00,,,0.07,Wunderground v.1.15,2013-04-10 17:00:00,
2013-04-10 13:11:00,44.7,40.5,29.99,NW,306,1.0,2.0,85,0.00,,,0.07,Wunderground v.1.15,2013-04-10 17:11:00,
2013-04-10 13:20:00,45.2,41.0,29.99,NW,314,1.0,2.0,85,0.00,,,0.07,Wunderground v.1.15,2013-04-10 17:20:00,
2013-04-10 13:30:00,45.8,40.9,29.99,WNW,296,1.0,1.0,83,0.00,,,0.07,Wunderground v.1.15,2013-04-10 17:30:00,
2013-04-10 13:35:00,46.1,40.9,29.99,NNW,337,2.0,2.0,82,0.00,,,0.07,Wunderground v.1.15,2013-04-10 17:35:00,
2013-04-10 13:50:00,45.8,40.6,29.99,SSW,205,1.0,1.0,82,0.00,,,0.07,Wunderground v.1.15,2013-04-10 17:50:00,
2013-04-10 13:55:00,45.6,40.7,29.99,SSW,205,1.0,2.0,83,0.00,,,0.07,Wunderground v.1.15,2013-04-10 17:55:00,
2013-04-10 14:05:00,45.2,40.7,29.99,SSW,205,1.0,1.0,84,0.00,,,0.07,Wunderground v.1.15,2013-04-10 18:05:00,
2013-04-10 14:15:00,45.0,40.5,30.00,SSW,205,1.0,1.0,84,0.00,,,0.07,Wunderground v.1.15,2013-04-10 18:15:00,
2013-04-10 14:25:00,44.8,40.6,30.00,SSW,205,1.0,1.0,85,0.00,,,0.07,Wunderground v.1.15,2013-04-10 18:25:00,
2013-04-10 14:30:00,44.8,40.6,30.00,SSW,205,0.0,0.0,85,0.00,,,0.07,Wunderground v.1.15,2013-04-10 18:30:00,
2013-04-10 14:35:00,44.9,40.4,29.99,SSW,205,0.0,0.0,84,0.00,,,0.07,Wunderground v.1.15,2013-04-10 18:35:00,
2013-04-10 14:40:00,45.0,40.5,29.99,SSW,205,0.0,0.0,84,0.00,,,0.07,Wunderground v.1.15,2013-04-10 18:40:00,
2013-04-10 14:45:00,45.1,41.2,29.98,SSW,205,0.0,0.0,86,0.00,,,0.07,Wunderground v.1.15,2013-04-10 18:45:00,
2013-04-10 14:50:00,45.2,41.3,29.98,SSW,205,0.0,0.0,86,0.00,,,0.07,Wunderground v.1.15,2013-04-10 18:50:00,
2013-04-10 15:00:00,45.5,41.9,29.98,SSW,205,0.0,0.0,87,0.00,,,0.07,Wunderground v.1.15,2013-04-10 19:00:00,
2013-04-10 15:05:00,45.5,41.9,29.97,SSW,205,0.0,0.0,87,0.00,,,0.07,Wunderground v.1.15,2013-04-10 19:05:00,
2013-04-10 15:15:00,45.7,41.1,29.97,SSW,205,0.0,1.0,84,0.00,,,0.07,Wunderground v.1.15,2013-04-10 19:15:00,
2013-04-10 15:20:00,45.7,40.8,29.97,SSW,205,1.0,1.0,83,0.00,,,0.07,Wunderground v.1.15,2013-04-10 19:20:00,
2013-04-10 15:30:00,45.6,40.7,29.96,SSW,213,1.0,1.0,83,0.00,,,0.07,Wunderground v.1.15,2013-04-10 19:30:00,
2013-04-10 15:35:00,45.6,40.7,29.96,SSW,213,1.0,1.0,83,0.00,,,0.07,Wunderground v.1.15,2013-04-10 19:35:00,
2013-04-10 15:40:00,45.5,40.3,29.95,SSW,213,0.0,1.0,82,0.00,,,0.07,Wunderground v.1.15,2013-04-10 19:40:00,
2013-04-10 15:45:00,45.5,40.6,29.95,SSW,213,0.0,1.0,83,0.00,,,0.07,Wunderground v.1.15,2013-04-10 19:45:00,
2013-04-10 15:50:00,45.6,40.4,29.94,SSW,213,0.0,1.0,82,0.00,,,0.07,Wunderground v.1.15,2013-04-10 19:50:00,
2013-04-10 15:55:00,45.8,40.6,29.94,SSW,213,0.0,0.0,82,0.00,,,0.07,Wunderground v.1.15,2013-04-10 19:55:00,
2013-04-10 16:05:00,45.8,40.3,29.95,SSW,213,0.0,1.0,81,0.00,,,0.07,Wunderground v.1.15,2013-04-10 20:05:00,
2013-04-10 16:10:00,45.8,40.3,29.95,SSW,213,1.0,1.0,81,0.00,,,0.07,Wunderground v.1.15,2013-04-10 20:10:00,
2013-04-10 16:15:00,45.8,40.0,29.95,SSW,213,1.0,1.0,80,0.00,,,0.07,Wunderground v.1.15,2013-04-10 20:15:00,
2013-04-10 16:20:00,45.8,39.7,29.95,SSW,213,1.0,1.0,79,0.00,,,0.07,Wunderground v.1.15,2013-04-10 20:20:00,
2013-04-10 16:25:00,45.8,39.7,29.95,SSW,213,1.0,4.0,79,0.00,,,0.07,Wunderground v.1.15,2013-04-10 20:25:00,
2013-04-10 16:30:00,45.6,39.8,29.95,SSW,213,1.0,4.0,80,0.00,,,0.07,Wunderground v.1.15,2013-04-10 20:30:00,
2013-04-10 16:40:00,45.7,39.9,29.94,SW,214,0.0,0.0,80,0.00,,,0.07,Wunderground v.1.15,2013-04-10 20:40:00,
2013-04-10 16:45:00,45.9,39.8,29.94,SW,214,0.0,2.0,79,0.00,,,0.07,Wunderground v.1.15,2013-04-10 20:45:00,
2013-04-10 16:50:00,46.0,39.9,29.94,SW,214,1.0,1.0,79,0.00,,,0.07,Wunderground v.1.15,2013-04-10 20:50:00,
2013-04-10 16:55:00,46.0,39.5,29.95,SW,214,1.0,1.0,78,0.00,,,0.07,Wunderground v.1.15,2013-04-10 20:55:00,
2013-04-10 17:00:00,45.7,38.9,29.95,SW,214,2.0,2.0,77,0.00,,,0.07,Wunderground v.1.15,2013-04-10 21:00:00,
2013-04-10 17:10:00,45.6,39.5,29.95,SW,214,1.0,1.0,79,0.00,,,0.07,Wunderground v.1.15,2013-04-10 21:10:00,
2013-04-10 17:15:00,45.7,39.6,29.95,SW,214,0.0,1.0,79,0.00,,,0.07,Wunderground v.1.15,2013-04-10 21:15:00,
2013-04-10 17:25:00,45.7,39.9,29.95,SW,214,1.0,1.0,80,0.00,,,0.07,Wunderground v.1.15,2013-04-10 21:25:00,
2013-04-10 17:35:00,45.6,40.1,29.95,SW,214,0.0,0.0,81,0.00,,,0.07,Wunderground v.1.15,2013-04-10 21:35:00,
2013-04-10 17:45:00,45.6,40.1,29.94,SW,214,0.0,0.0,81,0.00,,,0.07,Wunderground v.1.15,2013-04-10 21:45:00,
2013-04-10 17:55:00,45.7,40.2,29.94,SW,214,0.0,0.0,81,0.00,,,0.07,Wunderground v.1.15,2013-04-10 21:55:00,
2013-04-10 18:00:00,45.9,40.1,29.93,SW,214,0.0,0.0,80,0.00,,,0.07,Wunderground v.1.15,2013-04-10 22:00:00,
2013-04-10 18:10:00,45.8,40.3,29.93,SW,214,0.0,0.0,81,0.00,,,0.07,Wunderground v.1.15,2013-04-10 22:10:00,
2013-04-10 18:15:00,45.4,40.8,29.93,SW,214,0.0,0.0,84,0.00,,,0.07,Wunderground v.1.15,2013-04-10 22:15:00,
2013-04-10 18:20:00,45.1,40.6,29.94,SW,214,0.0,0.0,84,0.00,,,0.07,Wunderground v.1.15,2013-04-10 22:20:00,
2013-04-10 18:25:00,44.8,40.3,29.92,SW,214,0.0,0.0,84,0.00,,,0.07,Wunderground v.1.15,2013-04-10 22:25:00,
2013-04-10 18:30:00,44.5,40.6,29.92,SW,214,0.0,0.0,86,0.00,,,0.07,Wunderground v.1.15,2013-04-10 22:30:00,
2013-04-10 18:35:00,44.1,40.2,29.93,SW,214,0.0,0.0,86,0.00,,,0.07,Wunderground v.1.15,2013-04-10 22:35:00,
2013-04-10 18:40:00,43.9,40.3,29.92,SW,214,0.0,0.0,87,0.00,,,0.07,Wunderground v.1.15,2013-04-10 22:40:00,
2013-04-10 20:05:00,40.1,38.0,29.94,SW,214,0.0,0.0,92,0.00,,,0.07,Wunderground v.1.15,2013-04-11 00:05:00,
2013-04-10 21:05:00,38.7,36.9,29.97,SW,214,0.0,0.0,93,0.00,,,0.07,Wunderground v.1.15,2013-04-11 01:05:00,
2013-04-10 22:20:00,38.0,35.9,29.95,SW,214,0.0,0.0,92,0.00,,,0.07,Wunderground v.1.15,2013-04-11 02:20:00,
2013-04-10 22:25:00,37.9,36.1,29.94,SW,214,0.0,0.0,93,0.00,,,0.07,Wunderground v.1.15,2013-04-11 02:25:00,
2013-04-10 22:30:00,37.8,36.0,29.94,SW,214,0.0,0.0,93,0.00,,,0.07,Wunderground v.1.15,2013-04-11 02:30:00,
2013-04-10 22:35:00,37.6,35.5,29.94,SW,214,0.0,0.0,92,0.00,,,0.07,Wunderground v.1.15,2013-04-11 02:35:00,
2013-04-10 22:40:00,37.6,35.8,29.94,SW,214,0.0,0.0,93,0.00,,,0.07,Wunderground v.1.15,2013-04-11 02:40:00,
2013-04-10 22:45:00,37.4,35.3,29.95,SW,214,0.0,0.0,92,0.00,,,0.07,Wunderground v.1.15,2013-04-11 02:45:00,
2013-04-10 22:50:00,37.2,35.4,29.95,SW,214,0.0,0.0,93,0.00,,,0.07,Wunderground v.1.15,2013-04-11 02:50:00,
2013-04-10 22:55:00,37.4,35.8,29.95,SW,214,0.0,0.0,94,0.00,,,0.07,Wunderground v.1.15,2013-04-11 02:55:00,
2013-04-10 23:00:00,37.4,35.6,29.95,SW,214,0.0,0.0,93,0.00,,,0.07,Wunderground v.1.15,2013-04-11 03:00:00,
2013-04-10 23:05:00,37.3,35.7,29.95,SW,214,0.0,0.0,94,0.00,,,0.07,Wunderground v.1.15,2013-04-11 03:05:00,
2013-04-10 23:10:00,37.2,35.6,29.95,SW,214,0.0,0.0,94,0.00,,,0.07,Wunderground v.1.15,2013-04-11 03:10:00,
2013-04-10 23:15:00,37.3,35.7,29.95,SW,214,0.0,0.0,94,0.00,,,0.07,Wunderground v.1.15,2013-04-11 03:15:00,
2013-04-10 23:20:00,37.5,35.9,29.95,SW,214,0.0,0.0,94,0.00,,,0.07,Wunderground v.1.15,2013-04-11 03:20:00,
2013-04-10 23:25:00,36.9,35.1,29.95,SW,214,0.0,0.0,93,0.00,,,0.07,Wunderground v.1.15,2013-04-11 03:25:00,
2013-04-10 23:30:00,36.8,35.0,29.95,SW,214,0.0,0.0,93,0.00,,,0.07,Wunderground v.1.15,2013-04-11 03:30:00,
2013-04-10 23:35:00,36.9,35.1,29.95,SW,214,0.0,0.0,93,0.00,,,0.07,Wunderground v.1.15,2013-04-11 03:35:00,
2013-04-10 23:40:00,36.8,35.0,29.95,SW,214,0.0,0.0,93,0.00,,,0.07,Wunderground v.1.15,2013-04-11 03:40:00,
2013-04-10 23:45:00,36.6,34.8,29.95,SW,214,0.0,0.0,93,0.00,,,0.07,Wunderground v.1.15,2013-04-11 03:45:00,
2013-04-10 23:50:00,36.6,34.8,29.94,SW,214,0.0,0.0,93,0.00,,,0.07,Wunderground v.1.15,2013-04-11 03:50:00,
2013-04-10 23:55:00,36.7,34.9,29.94,SW,214,0.0,0.0,93,0.00,,,0.07,Wunderground v.1.15,2013-04-11 03:55:00,